Date,Time,Wetness (Wet Dry or Ice),Wind Speed (m/s),Temperature (C),Humidity (%),Pressure (mb),Radiation (W/m^2)
2022-12-20,04:30:00,DRY,3.13,9.60,36.0,777.00,0.0
2022-12-20,04:35:00,DRY,3.85,9.60,34.5,777.00,0.0
2022-12-20,04:40:00,DRY,2.57,9.67,32.7,777.00,0.0
2022-12-20,04:45:00,DRY,2.60,9.35,33.0,777.00,0.0
2022-12-20,04:50:00,DRY,3.30,9.03,34.7,777.00,0.0
2022-12-20,04:55:00,DRY,3.05,9.15,35.5,777.00,0.0
2022-12-20,05:00:00,DRY,2.80,9.27,33.7,777.00,0.0
2022-12-20,05:05:00,DRY,2.85,9.15,34.5,777.00,0.0
2022-12-20,05:10:00,DRY,2.87,9.27,34.7,777.00,0.0
2022-12-20,05:15:00,DRY,2.80,9.60,35.0,777.00,0.0
2022-12-20,05:20:00,DRY,3.10,9.57,35.0,777.00,0.0
2022-12-20,05:25:00,DRY,3.60,9.45,34.0,777.00,0.0
2022-12-20,05:30:00,DRY,3.60,9.47,33.3,777.00,0.0
2022-12-20,05:35:00,DRY,3.45,9.45,32.0,777.00,0.0
2022-12-20,05:40:00,DRY,3.53,9.47,31.7,777.00,0.0
2022-12-20,05:45:00,DRY,3.65,9.55,32.0,777.00,0.0
2022-12-20,05:50:00,DRY,3.33,9.43,32.3,777.00,0.0
2022-12-20,05:55:00,DRY,4.25,9.50,31.0,777.00,0.0
2022-12-20,06:00:00,DRY,4.57,9.60,29.3,777.00,0.0
2022-12-20,06:05:00,DRY,4.00,9.45,28.0,777.00,0.0
2022-12-20,06:10:00,DRY,4.00,9.47,27.3,777.00,0.0
2022-12-20,06:15:00,DRY,4.15,9.55,28.0,777.00,0.0
2022-12-20,06:20:00,DRY,4.67,9.47,27.7,777.00,0.0
2022-12-20,06:25:00,DRY,5.00,9.50,27.0,777.00,0.0
2022-12-20,06:30:00,DRY,4.23,9.43,27.0,777.00,0.0
2022-12-20,06:35:00,DRY,4.90,9.50,27.5,777.00,0.0
2022-12-20,06:40:00,DRY,4.50,9.57,28.0,777.00,0.0
2022-12-20,06:45:00,DRY,4.40,9.65,28.0,777.00,0.0
2022-12-20,06:50:00,DRY,4.70,9.67,29.3,777.00,0.0
2022-12-20,06:55:00,DRY,3.90,9.80,32.5,777.00,0.0
2022-12-20,07:00:00,DRY,3.70,9.80,34.0,777.00,0.0
2022-12-20,07:05:00,DRY,4.05,9.80,34.0,777.00,0.0
2022-12-20,07:10:00,DRY,2.67,9.67,34.0,777.00,0.0
2022-12-20,07:15:00,DRY,2.35,9.45,34.5,777.00,0.0
2022-12-20,07:20:00,DRY,2.73,9.10,37.0,777.00,0.0
2022-12-20,07:25:00,DRY,2.05,9.55,36.5,778.00,0.0
2022-12-20,07:30:00,DRY,0.87,9.57,36.0,778.00,0.0
2022-12-20,07:35:00,DRY,1.10,9.25,37.0,778.00,0.0
2022-12-20,07:40:00,DRY,0.97,9.00,37.7,778.00,0.0
2022-12-20,07:45:00,DRY,0.85,8.75,39.0,778.00,0.0
2022-12-20,07:50:00,DRY,0.73,8.57,39.3,778.00,0.0
2022-12-20,07:55:00,DRY,1.00,8.50,39.0,778.00,0.0
2022-12-20,08:00:00,DRY,0.57,8.47,36.7,778.00,0.0
2022-12-20,08:05:00,DRY,0.65,8.40,33.5,778.00,1.5
2022-12-20,08:10:00,DRY,0.57,8.40,32.0,778.00,6.0
2022-12-20,08:15:00,DRY,0.40,8.50,31.5,778.00,12.0
2022-12-20,08:20:00,DRY,0.67,8.77,30.0,778.00,17.3
2022-12-20,08:25:00,DRY,0.80,8.90,29.0,778.00,23.0
2022-12-20,08:30:00,DRY,1.57,9.07,28.0,778.00,31.0
2022-12-20,08:35:00,DRY,1.45,9.05,27.5,778.00,39.5
2022-12-20,08:40:00,DRY,1.43,8.67,21.7,778.00,52.0
2022-12-20,08:45:00,DRY,2.20,8.70,18.0,778.00,87.5
2022-12-20,08:50:00,DRY,1.70,8.50,19.0,778.00,96.7
2022-12-20,08:55:00,DRY,2.60,8.40,20.0,778.00,148.5
2022-12-20,09:00:00,DRY,2.03,8.40,20.0,778.00,189.3
2022-12-20,09:05:00,DRY,1.35,8.55,19.5,778.00,94.5
2022-12-20,09:10:00,DRY,1.53,8.47,19.0,778.00,101.7
2022-12-20,09:15:00,DRY,1.80,8.40,19.0,778.00,196.5
2022-12-20,09:20:00,DRY,1.07,8.53,17.7,778.00,265.0
2022-12-20,09:25:00,DRY,0.55,8.75,17.0,778.00,280.0
2022-12-20,09:30:00,DRY,0.80,8.97,16.0,778.67,291.7
2022-12-20,09:35:00,DRY,0.70,9.25,15.0,779.00,308.0
2022-12-20,09:40:00,DRY,0.30,9.47,15.7,779.00,324.3
2022-12-20,09:45:00,DRY,0.15,9.70,19.0,779.00,342.0
2022-12-20,09:50:00,DRY,0.40,9.97,23.0,779.00,359.3
2022-12-20,09:55:00,DRY,0.55,10.15,24.0,779.00,376.5
2022-12-20,10:00:00,DRY,0.60,10.53,20.3,779.00,396.7
2022-12-20,10:05:00,DRY,1.15,10.70,23.5,779.00,426.0
2022-12-20,10:10:00,DRY,0.47,10.90,30.3,779.00,444.3
2022-12-20,10:15:00,DRY,0.75,11.20,31.0,779.00,429.0
2022-12-20,10:20:00,DRY,0.93,11.00,25.3,779.00,460.0
2022-12-20,10:25:00,DRY,0.45,10.60,23.5,779.00,454.5
2022-12-20,10:30:00,DRY,0.90,10.50,22.3,779.00,463.7
2022-12-20,10:35:00,DRY,1.20,10.55,19.0,779.00,498.0
2022-12-20,10:40:00,DRY,1.70,11.23,21.3,779.00,512.0
2022-12-20,10:45:00,DRY,1.20,11.60,31.0,779.00,519.0
2022-12-20,10:50:00,DRY,1.60,11.80,31.3,779.00,530.3
2022-12-20,10:55:00,DRY,1.55,12.05,30.5,779.00,544.0
2022-12-20,11:00:00,DRY,0.30,11.20,23.3,779.00,561.0
2022-12-20,11:05:00,DRY,0.60,12.00,29.5,779.00,573.0
2022-12-20,11:10:00,DRY,0.90,12.50,28.3,779.00,550.7
2022-12-20,11:15:00,DRY,0.85,12.65,28.0,779.00,554.0
2022-12-20,11:20:00,DRY,0.97,11.67,24.3,779.00,587.3
2022-12-20,11:25:00,DRY,0.80,12.05,25.0,779.00,588.5
2022-12-20,11:30:00,DRY,1.07,12.53,25.3,779.00,608.3
2022-12-20,11:35:00,DRY,0.55,11.40,25.0,779.00,585.0
2022-12-20,11:40:00,DRY,0.67,11.73,27.3,779.00,531.7
2022-12-20,11:45:00,DRY,1.15,12.80,28.5,779.00,541.0
2022-12-20,11:50:00,DRY,0.87,13.17,27.7,779.00,597.7
2022-12-20,11:55:00,DRY,0.75,12.90,28.0,779.00,631.5
2022-12-20,12:00:00,DRY,0.93,12.77,28.0,779.00,648.7
2022-12-20,12:05:00,DRY,2.05,13.00,28.0,779.00,668.5
2022-12-20,12:10:00,DRY,0.40,13.00,28.0,779.00,669.7
2022-12-20,12:15:00,DRY,0.85,12.80,30.0,779.00,642.5
2022-12-20,12:20:00,DRY,1.13,12.67,31.0,779.00,658.7
2022-12-20,12:25:00,DRY,1.70,13.35,28.0,779.00,652.5
2022-12-20,12:30:00,DRY,1.37,12.63,30.0,779.00,660.3
2022-12-20,12:35:00,DRY,0.70,12.05,29.0,779.00,673.5
2022-12-20,12:40:00,DRY,0.90,12.23,30.0,779.00,678.7
2022-12-20,12:45:00,DRY,1.70,12.50,30.5,779.00,678.5
2022-12-20,12:50:00,DRY,1.47,12.50,31.3,779.00,674.3
2022-12-20,12:55:00,DRY,1.20,12.40,32.5,779.00,670.0
2022-12-20,13:00:00,DRY,1.47,12.50,32.0,778.67,657.0
2022-12-20,13:05:00,DRY,1.80,12.20,32.5,778.00,663.0
2022-12-20,13:10:00,DRY,1.57,11.63,32.7,778.33,677.7
2022-12-20,13:15:00,DRY,1.25,11.60,34.5,778.00,680.5
2022-12-20,13:20:00,DRY,1.20,12.60,34.0,778.00,671.7
2022-12-20,13:25:00,DRY,1.65,12.95,33.0,778.00,676.0
2022-12-20,13:30:00,DRY,1.45,12.45,34.0,778.00,674.0
2022-12-20,13:35:00,DRY,1.10,12.30,34.0,778.00,655.0
2022-12-20,13:40:00,DRY,1.53,12.30,34.0,778.00,638.7
2022-12-20,13:45:00,DRY,1.50,12.55,34.0,778.00,656.5
2022-12-20,13:50:00,DRY,1.17,12.30,35.3,778.00,660.7
2022-12-20,13:55:00,DRY,0.85,12.60,35.0,778.00,659.0
2022-12-20,14:00:00,DRY,1.83,13.07,32.3,778.00,656.7
2022-12-20,14:05:00,DRY,0.95,13.50,31.0,778.00,653.0
2022-12-20,14:10:00,DRY,1.33,13.33,33.3,778.00,645.0
2022-12-20,14:15:00,DRY,1.60,12.55,34.5,778.00,637.0
2022-12-20,14:20:00,DRY,1.63,11.87,37.3,778.00,629.0
2022-12-20,14:25:00,DRY,1.15,11.55,39.0,778.00,620.5
2022-12-20,14:30:00,DRY,1.43,11.53,42.3,778.00,610.3
2022-12-20,14:35:00,DRY,0.65,12.00,41.0,778.00,600.0
2022-12-20,14:40:00,DRY,1.10,12.07,39.7,778.00,590.7
2022-12-20,14:45:00,DRY,0.90,11.25,42.5,778.00,583.5
2022-12-20,14:50:00,DRY,0.83,11.43,41.0,778.00,574.0
2022-12-20,14:55:00,DRY,1.10,11.55,38.0,778.00,566.5
2022-12-20,15:00:00,DRY,0.93,12.00,36.7,778.00,555.7
2022-12-20,15:05:00,DRY,0.85,11.70,34.5,778.00,544.5
2022-12-20,15:10:00,DRY,0.77,11.50,36.0,778.00,531.7
2022-12-20,15:15:00,DRY,0.85,11.75,34.5,778.00,521.0
2022-12-20,15:20:00,DRY,0.93,11.77,34.3,778.00,512.3
2022-12-20,15:25:00,DRY,1.55,12.00,34.5,778.00,501.0
2022-12-20,15:30:00,DRY,0.87,11.43,34.3,778.00,486.7
2022-12-20,15:35:00,DRY,1.00,11.00,36.0,778.00,474.5
2022-12-20,15:40:00,DRY,0.77,11.10,36.0,778.00,460.7
2022-12-20,15:45:00,DRY,1.15,11.10,35.5,778.00,447.5
2022-12-20,15:50:00,DRY,0.77,11.13,35.3,778.00,434.3
2022-12-20,15:55:00,DRY,0.55,11.60,34.5,778.00,421.0
2022-12-20,16:00:00,DRY,0.70,11.37,34.3,778.00,404.7
2022-12-20,16:05:00,DRY,0.35,11.35,34.0,778.00,390.0
2022-12-20,16:10:00,DRY,0.63,11.77,32.7,778.00,375.0
2022-12-20,16:15:00,DRY,0.75,11.85,33.0,778.00,358.5
2022-12-20,16:20:00,DRY,0.63,11.37,33.3,778.00,340.0
2022-12-20,16:25:00,DRY,0.55,11.35,34.5,778.00,320.5
2022-12-20,16:30:00,DRY,0.63,11.27,33.0,778.00,302.3
2022-12-20,16:35:00,DRY,0.30,11.90,32.0,778.00,289.5
2022-12-20,16:40:00,DRY,0.77,12.40,31.0,778.00,272.0
2022-12-20,16:45:00,DRY,0.70,11.75,32.0,778.00,256.0
2022-12-20,16:50:00,DRY,0.90,11.80,33.0,778.00,240.0
2022-12-20,16:55:00,DRY,0.70,11.85,32.0,778.00,223.5
2022-12-20,17:00:00,DRY,0.60,11.33,32.3,778.00,205.7
2022-12-20,17:05:00,DRY,0.55,11.00,34.0,778.00,184.0
2022-12-20,17:10:00,DRY,0.57,11.10,33.3,778.00,129.3
2022-12-20,17:15:00,DRY,0.65,10.65,34.5,778.00,98.0
2022-12-20,17:20:00,DRY,1.13,9.90,36.3,778.00,99.0
2022-12-20,17:25:00,DRY,0.90,9.60,38.0,778.00,73.0
2022-12-20,17:30:00,DRY,0.63,9.70,37.3,778.00,90.3
2022-12-20,17:35:00,DRY,0.65,9.85,36.0,778.00,72.0
2022-12-20,17:40:00,DRY,0.90,9.73,36.3,778.00,39.7
2022-12-20,17:45:00,DRY,0.65,9.60,36.5,778.00,24.0
2022-12-20,17:50:00,DRY,1.07,9.63,36.0,778.00,14.0
2022-12-20,17:55:00,DRY,1.15,9.30,37.5,778.00,10.0
2022-12-20,18:00:00,DRY,1.07,9.10,38.0,778.00,7.7
2022-12-20,18:05:00,DRY,0.25,9.25,37.5,778.00,5.5
2022-12-20,18:10:00,DRY,0.83,9.40,35.7,778.00,5.3
2022-12-20,18:15:00,DRY,0.95,9.60,35.0,778.00,4.0
2022-12-20,18:20:00,DRY,1.10,9.20,36.3,778.00,0.0
2022-12-20,18:25:00,DRY,1.05,8.90,38.0,778.00,0.0
2022-12-20,18:30:00,DRY,0.87,8.97,37.0,778.33,0.0
2022-12-20,18:35:00,DRY,1.15,9.00,37.0,778.00,0.0
2022-12-20,18:40:00,DRY,1.13,9.07,36.7,779.00,0.0
2022-12-20,18:45:00,DRY,0.85,9.10,35.5,778.50,0.0
2022-12-20,18:50:00,DRY,1.00,9.10,35.0,779.00,0.0
2022-12-20,18:55:00,DRY,0.65,9.05,36.0,779.00,0.0
2022-12-20,19:00:00,DRY,1.00,8.93,35.7,779.00,0.0
2022-12-20,19:05:00,DRY,1.35,9.00,36.0,779.00,0.0
2022-12-20,19:10:00,DRY,1.07,9.03,36.0,779.00,0.0
2022-12-20,19:15:00,DRY,0.85,8.95,36.0,779.00,0.0
2022-12-20,19:20:00,DRY,1.03,8.90,36.0,779.00,0.0
2022-12-20,19:25:00,DRY,1.30,8.90,37.0,779.00,0.0
2022-12-20,19:30:00,DRY,1.10,8.80,37.3,779.00,0.0
2022-12-20,19:35:00,DRY,1.40,8.65,38.0,779.00,0.0
2022-12-20,19:40:00,DRY,1.47,8.77,37.3,779.00,0.0
2022-12-20,19:45:00,DRY,1.70,8.90,37.0,779.00,0.0
2022-12-20,19:50:00,DRY,1.23,8.90,37.0,779.00,0.0
2022-12-20,19:55:00,DRY,1.45,8.90,37.0,779.00,0.0
2022-12-20,20:00:00,DRY,0.70,8.83,37.7,779.00,0.0
2022-12-20,20:05:00,DRY,0.45,8.70,37.0,779.00,0.0
2022-12-20,20:10:00,DRY,0.33,8.83,36.3,779.00,0.0
2022-12-20,20:15:00,DRY,0.45,8.90,35.0,779.00,0.0
2022-12-20,20:20:00,DRY,0.63,9.10,35.0,779.00,0.0
2022-12-20,20:25:00,DRY,0.40,9.30,35.0,779.00,0.0
2022-12-20,20:30:00,DRY,0.50,9.27,35.0,779.00,0.0
2022-12-20,20:35:00,DRY,1.65,9.20,35.5,779.00,0.0
2022-12-20,20:40:00,DRY,1.43,9.60,33.3,779.00,0.0
2022-12-20,20:45:00,DRY,0.25,9.75,30.5,779.00,0.0
2022-12-20,20:50:00,DRY,0.43,9.57,29.7,779.00,0.0
2022-12-20,20:55:00,DRY,0.30,9.45,32.0,779.00,0.0
2022-12-20,21:00:00,DRY,0.40,9.20,34.3,779.00,0.0
2022-12-20,21:05:00,DRY,0.50,9.10,35.0,779.00,0.0
2022-12-20,21:10:00,DRY,0.23,8.83,36.3,779.00,0.0
2022-12-20,21:15:00,DRY,0.45,8.45,37.5,779.00,0.0
2022-12-20,21:20:00,DRY,0.33,8.57,37.0,779.67,0.0
2022-12-20,21:25:00,DRY,0.30,8.60,37.0,779.00,0.0
2022-12-20,21:30:00,DRY,0.50,8.63,36.0,780.00,0.0
2022-12-20,21:35:00,DRY,0.35,8.85,35.0,779.50,0.0
2022-12-20,21:40:00,DRY,0.57,8.90,35.0,780.00,0.0
2022-12-20,21:45:00,DRY,1.05,8.95,35.0,780.00,0.0
2022-12-20,21:50:00,DRY,0.93,9.10,34.7,780.00,0.0
2022-12-20,21:55:00,DRY,0.55,8.90,36.0,780.00,0.0
2022-12-20,22:00:00,DRY,0.87,9.10,35.7,780.00,0.0
2022-12-20,22:05:00,DRY,0.50,9.15,34.5,780.00,0.0
2022-12-20,22:10:00,DRY,0.47,9.10,33.0,780.00,0.0
2022-12-20,22:15:00,DRY,0.60,9.00,33.0,780.00,0.0
2022-12-20,22:20:00,DRY,0.73,9.13,34.0,780.00,0.0
2022-12-20,22:25:00,DRY,0.40,9.15,34.0,780.00,0.0
2022-12-20,22:30:00,DRY,0.53,9.13,33.0,780.00,0.0
2022-12-20,22:35:00,DRY,0.55,9.10,33.5,780.00,0.0
2022-12-20,22:40:00,DRY,0.67,9.10,33.7,780.00,0.0
2022-12-20,22:45:00,DRY,0.35,9.05,33.5,780.00,0.0
2022-12-20,22:50:00,DRY,0.70,8.97,32.3,780.00,0.0
2022-12-20,22:55:00,DRY,0.55,9.10,32.0,780.00,0.0
2022-12-20,23:00:00,DRY,0.90,9.20,30.3,780.00,0.0
2022-12-20,23:05:00,DRY,1.35,9.45,30.0,780.00,0.0
2022-12-20,23:10:00,DRY,1.57,9.83,29.0,780.00,0.0
2022-12-20,23:15:00,DRY,1.50,10.10,27.5,780.00,0.0
2022-12-20,23:20:00,DRY,1.07,10.07,26.3,780.00,0.0
2022-12-20,23:25:00,DRY,1.50,10.05,23.5,780.00,0.0
2022-12-20,23:30:00,DRY,1.63,10.27,23.7,780.00,0.0
2022-12-20,23:35:00,DRY,1.60,10.30,27.0,780.00,0.0
2022-12-20,23:40:00,DRY,0.57,10.20,26.0,780.00,0.0
2022-12-20,23:45:00,DRY,0.95,9.90,24.5,780.00,0.0
2022-12-20,23:50:00,DRY,0.63,9.77,24.0,780.00,0.0
2022-12-20,23:55:00,DRY,1.20,9.70,23.5,780.00,0.0
2022-12-21,00:00:00,DRY,0.97,9.80,27.0,780.00,0.0
2022-12-21,00:05:00,DRY,0.75,9.80,27.0,780.00,0.0
2022-12-21,00:10:00,DRY,0.40,9.73,25.3,780.00,0.0
2022-12-21,00:15:00,DRY,0.25,9.50,25.0,780.00,0.0
2022-12-21,00:20:00,DRY,0.67,9.30,24.3,780.00,0.0
2022-12-21,00:25:00,DRY,0.75,9.50,28.5,780.00,0.0
2022-12-21,00:30:00,DRY,0.50,9.60,34.0,780.00,0.0
2022-12-21,00:35:00,DRY,0.20,9.60,30.5,780.00,0.0
2022-12-21,00:40:00,DRY,0.23,9.40,28.0,780.00,0.0
2022-12-21,00:45:00,DRY,0.70,9.05,26.5,780.00,0.0
2022-12-21,00:50:00,DRY,0.80,9.07,26.0,780.00,0.0
2022-12-21,00:55:00,DRY,0.70,9.20,26.0,780.00,0.0
2022-12-21,01:00:00,DRY,0.50,9.37,36.0,780.00,0.0
2022-12-21,01:05:00,DRY,0.65,9.40,36.5,780.00,0.0
2022-12-21,01:10:00,DRY,0.80,9.47,37.7,780.00,0.0
2022-12-21,01:15:00,DRY,0.75,9.50,42.5,780.00,0.0
2022-12-21,01:20:00,DRY,0.30,9.33,30.0,779.33,0.0
2022-12-21,01:25:00,DRY,0.15,9.10,28.5,779.50,0.0
2022-12-21,01:30:00,DRY,0.20,8.93,33.0,779.00,0.0
2022-12-21,01:35:00,DRY,0.10,8.75,31.0,779.00,0.0
2022-12-21,01:40:00,DRY,0.20,8.47,27.0,779.00,0.0
2022-12-21,01:45:00,DRY,0.30,8.30,26.5,779.00,0.0
2022-12-21,01:50:00,DRY,0.20,8.47,25.3,779.00,0.0
2022-12-21,01:55:00,DRY,0.40,8.45,28.5,779.00,0.0
2022-12-21,02:00:00,DRY,0.53,9.13,26.0,779.00,0.0
2022-12-21,02:05:00,DRY,0.60,9.30,26.5,779.00,0.0
2022-12-21,02:10:00,DRY,0.47,9.40,25.0,779.00,0.0
2022-12-21,02:15:00,DRY,0.65,9.35,26.0,779.00,0.0
2022-12-21,02:20:00,DRY,1.73,9.40,30.7,779.00,0.0
2022-12-21,02:25:00,DRY,1.85,9.65,37.5,779.00,0.0
2022-12-21,02:30:00,DRY,1.77,9.57,34.3,779.00,0.0
2022-12-21,02:35:00,DRY,1.80,9.70,29.0,779.00,0.0
2022-12-21,02:40:00,DRY,1.17,9.83,34.7,779.00,0.0
2022-12-21,02:45:00,DRY,0.55,9.75,37.0,779.00,0.0
2022-12-21,02:50:00,DRY,0.30,9.53,34.3,779.00,0.0
2022-12-21,02:55:00,DRY,0.20,9.20,37.0,779.00,0.0
2022-12-21,03:00:00,DRY,0.27,8.83,38.0,779.00,0.0
2022-12-21,03:05:00,DRY,0.45,8.85,40.0,779.00,0.0
2022-12-21,03:10:00,DRY,0.37,9.10,39.3,779.00,0.0
2022-12-21,03:15:00,DRY,0.20,8.85,35.5,779.00,0.0
2022-12-21,03:20:00,DRY,0.20,8.43,32.7,779.00,0.0
2022-12-21,03:25:00,DRY,0.20,8.40,32.5,779.00,0.0
2022-12-21,03:30:00,DRY,0.30,8.20,30.3,779.00,0.0
2022-12-21,03:35:00,DRY,0.25,8.05,29.0,779.00,0.0
2022-12-21,03:40:00,DRY,0.43,8.17,28.3,779.00,0.0
2022-12-21,03:45:00,DRY,0.40,8.55,28.0,779.00,0.0
2022-12-21,03:50:00,DRY,0.30,8.87,27.7,779.00,0.0
2022-12-21,03:55:00,DRY,0.45,9.05,27.0,779.00,0.0
2022-12-21,04:00:00,DRY,0.43,9.27,26.3,779.00,0.0
2022-12-21,04:05:00,DRY,0.60,9.50,26.0,779.00,0.0
2022-12-21,04:10:00,DRY,0.37,9.50,26.0,779.00,0.0
2022-12-21,04:15:00,DRY,0.55,9.40,26.5,779.00,0.0
2022-12-21,04:20:00,DRY,0.93,9.20,27.0,779.00,0.0
2022-12-21,04:25:00,DRY,1.15,9.20,28.0,779.00,0.0
2022-12-21,04:30:00,DRY,0.43,9.23,27.7,779.00,0.0
2022-12-21,04:35:00,DRY,0.80,9.25,27.0,779.00,0.0
2022-12-21,04:40:00,DRY,0.67,9.47,26.3,779.00,0.0
2022-12-21,04:45:00,DRY,0.55,9.50,26.0,779.00,0.0
2022-12-21,04:50:00,DRY,0.50,9.40,26.3,779.00,0.0
2022-12-21,04:55:00,DRY,0.55,9.35,27.0,779.00,0.0
2022-12-21,05:00:00,DRY,0.80,9.40,27.0,779.00,0.0
2022-12-21,05:05:00,DRY,0.75,9.50,26.0,779.00,0.0
2022-12-21,05:10:00,DRY,0.23,9.53,26.7,779.00,0.0
2022-12-21,05:15:00,DRY,0.45,9.50,26.0,779.00,0.0
2022-12-21,05:20:00,DRY,0.73,9.50,26.0,779.00,0.0
2022-12-21,05:25:00,DRY,0.85,9.50,26.0,779.00,0.0
2022-12-21,05:30:00,DRY,0.60,9.30,27.0,779.00,0.0
2022-12-21,05:35:00,DRY,1.20,9.00,28.5,779.00,0.0
2022-12-21,05:40:00,DRY,0.73,8.83,30.0,779.00,0.0
2022-12-21,05:45:00,DRY,1.15,8.75,30.5,779.00,0.0
2022-12-21,05:50:00,DRY,1.23,8.97,30.0,779.00,0.0
2022-12-21,05:55:00,DRY,1.00,8.90,30.0,779.00,0.0
2022-12-21,06:00:00,DRY,1.10,8.90,30.7,779.00,0.0
2022-12-21,06:05:00,DRY,1.40,8.90,30.5,779.00,0.0
2022-12-21,06:10:00,DRY,1.53,8.90,31.3,779.00,0.0
2022-12-21,06:15:00,DRY,1.40,8.70,32.0,779.00,0.0
2022-12-21,06:20:00,DRY,2.00,8.63,32.7,779.00,0.0
2022-12-21,06:25:00,DRY,1.75,8.70,33.0,779.00,0.0
2022-12-21,06:30:00,DRY,0.83,8.70,33.0,779.00,0.0
2022-12-21,06:35:00,DRY,1.45,8.65,33.0,779.00,0.0
2022-12-21,06:40:00,DRY,1.37,8.77,32.7,779.00,0.0
2022-12-21,06:45:00,DRY,1.75,8.75,33.0,779.00,0.0
2022-12-21,06:50:00,DRY,1.50,8.87,32.0,779.00,0.0
2022-12-21,06:55:00,DRY,1.30,8.80,32.0,779.00,0.0
2022-12-21,07:00:00,DRY,1.10,8.90,31.0,779.00,0.0
2022-12-21,07:05:00,DRY,0.55,9.00,30.5,779.00,0.0
2022-12-21,07:10:00,DRY,1.77,8.87,31.0,779.00,0.0
2022-12-21,07:15:00,DRY,1.80,8.70,31.0,779.00,0.0
2022-12-21,07:20:00,DRY,2.30,8.90,30.0,779.00,0.0
2022-12-21,07:25:00,DRY,2.05,8.80,30.0,779.00,0.0
2022-12-21,07:30:00,DRY,1.87,8.90,30.3,779.00,0.0
2022-12-21,07:35:00,DRY,2.20,8.85,31.0,779.00,0.0
2022-12-21,07:40:00,DRY,1.97,9.00,32.0,779.00,0.0
2022-12-21,07:45:00,DRY,2.00,8.75,32.5,779.00,0.0
2022-12-21,07:50:00,DRY,2.73,8.67,33.0,779.00,0.0
2022-12-21,07:55:00,DRY,2.20,8.80,33.0,779.00,0.0
2022-12-21,08:00:00,DRY,1.60,8.97,32.3,779.00,0.0
2022-12-21,08:05:00,DRY,1.65,9.10,32.0,779.00,1.5
2022-12-21,08:10:00,DRY,2.00,9.00,31.7,779.00,4.0
2022-12-21,08:15:00,DRY,2.15,8.90,32.0,779.00,7.5
2022-12-21,08:20:00,DRY,2.27,8.67,32.3,779.00,10.0
2022-12-21,08:25:00,DRY,2.75,8.90,32.0,779.00,13.0
2022-12-21,08:30:00,DRY,1.87,9.07,31.7,779.67,16.3
2022-12-21,08:35:00,DRY,2.35,8.95,33.0,780.00,19.0
2022-12-21,08:40:00,DRY,2.17,9.00,32.7,780.00,24.7
2022-12-21,08:45:00,DRY,2.70,8.80,33.5,779.50,118.5
2022-12-21,08:50:00,DRY,2.50,9.03,33.0,780.00,150.7
2022-12-21,08:55:00,DRY,2.70,9.10,33.0,780.00,167.5
2022-12-21,09:00:00,DRY,1.80,9.33,32.3,780.00,186.0
2022-12-21,09:05:00,DRY,2.40,9.55,32.0,780.00,203.0
2022-12-21,09:10:00,DRY,1.80,9.57,31.7,780.00,221.0
2022-12-21,09:15:00,DRY,2.10,9.35,32.0,780.00,238.5
2022-12-21,09:20:00,DRY,2.40,9.33,32.3,780.00,256.7
2022-12-21,09:25:00,DRY,2.90,9.40,32.0,780.00,274.5
2022-12-21,09:30:00,DRY,2.73,9.57,31.0,780.00,292.0
2022-12-21,09:35:00,DRY,2.50,9.70,30.0,780.00,309.5
2022-12-21,09:40:00,DRY,2.53,9.87,29.7,780.00,327.0
2022-12-21,09:45:00,DRY,2.60,10.00,28.5,780.00,342.5
2022-12-21,09:50:00,DRY,2.23,10.23,28.0,780.00,359.3
2022-12-21,09:55:00,DRY,2.45,10.10,28.5,780.00,375.5
2022-12-21,10:00:00,DRY,2.10,10.10,27.7,780.00,390.7
2022-12-21,10:05:00,DRY,2.30,10.15,28.0,780.00,406.5
2022-12-21,10:10:00,DRY,2.20,10.03,27.0,780.00,421.3
2022-12-21,10:15:00,DRY,1.85,10.25,27.0,780.00,435.5
2022-12-21,10:20:00,DRY,1.67,10.40,26.7,780.33,449.7
2022-12-21,10:25:00,DRY,2.10,10.45,26.5,780.50,463.5
2022-12-21,10:30:00,DRY,2.13,10.43,25.0,781.00,478.3
2022-12-21,10:35:00,DRY,2.50,10.40,25.5,780.00,492.0
2022-12-21,10:40:00,DRY,1.87,10.43,26.0,780.67,505.0
2022-12-21,10:45:00,DRY,2.10,10.55,25.5,780.50,518.0
2022-12-21,10:50:00,DRY,2.00,10.87,24.7,780.67,531.0
2022-12-21,10:55:00,DRY,1.15,10.80,26.5,780.50,541.5
2022-12-21,11:00:00,DRY,1.93,11.23,26.3,780.00,553.0
2022-12-21,11:05:00,DRY,2.45,11.05,24.0,780.50,565.0
2022-12-21,11:10:00,DRY,1.60,11.07,24.7,780.67,575.0
2022-12-21,11:15:00,DRY,1.25,11.30,27.0,781.00,585.0
2022-12-21,11:20:00,DRY,0.97,11.67,25.3,781.00,594.7
2022-12-21,11:25:00,DRY,1.15,12.00,26.0,780.50,603.5
2022-12-21,11:30:00,DRY,2.57,11.57,23.7,780.00,614.3
2022-12-21,11:35:00,DRY,2.50,11.35,24.5,780.00,624.0
2022-12-21,11:40:00,DRY,1.40,11.50,26.0,780.00,631.7
2022-12-21,11:45:00,DRY,1.90,12.15,29.0,780.00,638.0
2022-12-21,11:50:00,DRY,1.83,11.80,29.0,780.00,645.0
2022-12-21,11:55:00,DRY,1.60,11.50,28.5,780.00,652.0
2022-12-21,12:00:00,DRY,2.23,11.47,27.3,780.00,660.0
2022-12-21,12:05:00,DRY,1.05,11.75,27.0,780.00,666.0
2022-12-21,12:10:00,DRY,0.63,12.30,29.7,780.00,670.3
2022-12-21,12:15:00,DRY,0.65,12.55,28.0,780.00,674.5
2022-12-21,12:20:00,DRY,1.27,12.60,28.3,780.00,677.3
2022-12-21,12:25:00,DRY,1.80,12.20,30.0,780.00,681.5
2022-12-21,12:30:00,DRY,1.90,12.00,29.0,780.00,685.3
2022-12-21,12:35:00,DRY,1.65,11.95,29.5,780.00,689.5
2022-12-21,12:40:00,DRY,1.93,12.03,29.7,780.00,692.0
2022-12-21,12:45:00,DRY,2.20,11.80,29.0,780.00,695.0
2022-12-21,12:50:00,DRY,2.20,11.60,29.7,780.00,697.3
2022-12-21,12:55:00,DRY,2.30,11.50,29.5,780.00,699.0
2022-12-21,13:00:00,DRY,1.77,11.40,29.3,780.00,699.3
2022-12-21,13:05:00,DRY,1.85,11.55,27.0,779.00,699.5
2022-12-21,13:10:00,DRY,1.87,11.63,26.0,779.00,699.3
2022-12-21,13:15:00,DRY,1.80,11.50,28.5,779.00,698.5
2022-12-21,13:20:00,DRY,1.23,12.30,30.0,779.00,695.3
2022-12-21,13:25:00,DRY,1.75,12.25,30.0,779.00,691.5
2022-12-21,13:30:00,DRY,1.90,12.10,28.5,779.00,689.0
2022-12-21,13:35:00,DRY,0.40,11.90,29.0,779.00,688.0
2022-12-21,13:40:00,DRY,1.73,11.83,33.3,779.00,684.0
2022-12-21,13:45:00,DRY,2.40,11.35,34.5,779.00,681.0
2022-12-21,13:50:00,DRY,2.60,11.40,32.7,779.00,677.7
2022-12-21,13:55:00,DRY,1.75,11.35,32.0,779.00,673.5
2022-12-21,14:00:00,DRY,1.93,11.53,33.3,779.00,667.7
2022-12-21,14:05:00,DRY,1.75,11.85,32.0,779.00,661.5
2022-12-21,14:10:00,DRY,1.87,11.73,32.7,779.00,654.0
2022-12-21,14:15:00,DRY,1.60,11.55,33.0,779.00,649.0
2022-12-21,14:20:00,DRY,1.53,11.97,32.0,779.00,640.0
2022-12-21,14:25:00,DRY,0.95,12.00,33.5,779.00,633.0
2022-12-21,14:30:00,DRY,1.33,12.27,30.7,779.00,623.7
2022-12-21,14:35:00,DRY,1.75,12.55,31.5,779.00,615.5
2022-12-21,14:40:00,DRY,2.13,11.97,31.7,779.00,606.3
2022-12-21,14:45:00,DRY,1.75,11.85,31.0,779.00,597.5
2022-12-21,14:50:00,DRY,1.77,12.00,29.0,778.00,589.3
2022-12-21,14:55:00,DRY,1.40,12.15,48.0,778.00,578.5
2022-12-21,15:00:00,DRY,0.70,12.47,58.7,778.33,567.3
2022-12-21,15:05:00,DRY,0.60,13.20,54.5,778.50,555.5
2022-12-21,15:10:00,DRY,1.47,13.07,40.0,779.00,542.7
2022-12-21,15:15:00,DRY,1.80,11.65,36.0,778.50,530.5
2022-12-21,15:20:00,DRY,1.57,11.47,37.0,778.00,519.3
2022-12-21,15:25:00,DRY,1.70,11.40,34.5,779.00,508.5
2022-12-21,15:30:00,DRY,1.57,11.57,30.0,779.00,497.0
2022-12-21,15:35:00,DRY,1.25,11.90,29.5,779.00,483.5
2022-12-21,15:40:00,DRY,2.30,11.60,29.0,779.00,471.3
2022-12-21,15:45:00,DRY,2.45,11.20,29.0,779.00,458.0
2022-12-21,15:50:00,DRY,2.17,11.13,29.3,779.00,445.0
2022-12-21,15:55:00,DRY,1.80,10.95,29.5,779.00,429.0
2022-12-21,16:00:00,DRY,2.03,10.90,28.7,779.00,413.7
2022-12-21,16:05:00,DRY,1.95,10.85,28.0,779.00,399.5
2022-12-21,16:10:00,DRY,2.43,10.70,28.3,779.00,385.7
2022-12-21,16:15:00,DRY,3.45,10.55,27.0,779.00,372.0
2022-12-21,16:20:00,DRY,1.97,10.60,26.0,779.00,355.3
2022-12-21,16:25:00,DRY,3.35,10.65,25.0,779.00,340.0
2022-12-21,16:30:00,DRY,2.63,10.50,26.3,779.00,323.0
2022-12-21,16:35:00,DRY,4.00,10.40,27.5,779.00,307.0
2022-12-21,16:40:00,DRY,2.93,10.30,29.0,779.00,289.7
2022-12-21,16:45:00,DRY,3.25,10.10,28.5,779.00,272.5
2022-12-21,16:50:00,DRY,2.27,10.33,27.0,779.00,255.0
2022-12-21,16:55:00,DRY,3.15,10.30,26.5,779.00,237.5
2022-12-21,17:00:00,DRY,3.53,10.10,28.0,779.00,220.3
2022-12-21,17:05:00,DRY,2.85,9.80,27.0,779.00,202.5
2022-12-21,17:10:00,DRY,4.00,9.90,28.3,779.00,184.7
2022-12-21,17:15:00,DRY,3.05,9.95,28.0,778.50,167.0
2022-12-21,17:20:00,DRY,3.23,10.20,27.3,779.00,149.0
2022-12-21,17:25:00,DRY,2.30,10.30,27.0,779.00,131.5
2022-12-21,17:30:00,DRY,2.73,10.47,26.0,779.00,115.3
2022-12-21,17:35:00,DRY,3.65,10.50,25.0,779.00,97.5
2022-12-21,17:40:00,DRY,2.73,10.43,27.3,779.00,81.3
2022-12-21,17:45:00,DRY,2.45,10.55,26.5,779.00,64.5
2022-12-21,17:50:00,DRY,3.13,10.50,24.0,779.00,48.3
2022-12-21,17:55:00,DRY,2.65,10.55,20.5,779.00,32.0
2022-12-21,18:00:00,DRY,2.87,10.60,21.0,779.00,20.7
2022-12-21,18:05:00,DRY,3.15,10.70,19.0,779.00,16.0
2022-12-21,18:10:00,DRY,3.93,10.40,20.0,779.00,11.3
2022-12-21,18:15:00,DRY,3.20,9.90,22.5,779.00,5.5
2022-12-21,18:20:00,DRY,2.87,9.80,23.7,779.00,1.3
2022-12-21,18:25:00,DRY,3.25,10.05,27.5,779.00,0.0
2022-12-21,18:30:00,DRY,1.43,9.97,27.7,779.00,0.0
2022-12-21,18:35:00,DRY,1.85,9.90,28.0,779.00,0.0
2022-12-21,18:40:00,DRY,1.57,9.60,27.3,779.00,0.0
2022-12-21,18:45:00,DRY,0.65,9.40,26.5,779.00,0.0
2022-12-21,18:50:00,DRY,1.57,9.37,28.3,779.00,0.0
2022-12-21,18:55:00,DRY,1.75,9.25,29.0,779.00,0.0
2022-12-21,19:00:00,DRY,1.87,9.20,29.7,779.00,0.0
2022-12-21,19:05:00,DRY,0.65,9.10,31.5,779.00,0.0
2022-12-21,19:10:00,DRY,0.47,9.00,32.3,779.00,0.0